Total_Precipitation_Accumulation
0.15 0.24 0.33 0.30 0.38 0.56 0.37 0.26 0.13 0.09 0.07 0.05 0.04 0.02 0.01 0.01 0.02 0.02 0.03 0.04 0.05 0.03
0.08 0.03 0.11 0.14 0.16 0.16 0.14 0.13 0.13 0.10 0.05 0.02 0.00 0.00 0.01 0.01 0.02 0.03 0.04 0.04 0.02 0.00
0.06 0.06 0.02 0.04 0.06 0.09 0.09 0.06 0.08 0.05 0.01 0.00 0.00 0.01 0.01 0.02 0.01 0.01 0.01 0.01 0.01 0.01
0.08 0.22 0.10 0.09 0.09 0.08 0.08 0.04 0.02 0.02 0.01 0.01 0.02 0.01 0.00 0.00 0.01 0.01 0.02 0.03 0.05 0.04
0.35 0.41 0.30 0.16 0.12 0.14 0.09 0.03 0.01 0.01 0.00 0.00 0.00 0.01 0.01 0.00 0.01 0.05 0.14 0.20 0.11 0.03
0.25 0.18 0.17 0.29 0.20 0.12 0.07 0.04 0.01 0.00 0.01 0.01 0.00 0.01 0.02 0.04 0.12 0.22 0.18 0.05 0.01 0.00
0.18 0.12 0.05 0.08 0.10 0.05 0.03 0.02 0.02 0.02 0.02 0.02 0.03 0.05 0.07 0.16 0.14 0.05 0.01 0.00 0.00 0.00
0.09 0.05 0.07 0.06 0.05 0.03 0.02 0.02 0.01 0.01 0.02 0.03 0.05 0.08 0.12 0.05 0.02 0.00 0.00 0.00 0.00 0.00
0.02 0.01 0.03 0.04 0.03 0.01 0.00 0.00 0.02 0.02 0.02 0.05 0.07 0.04 0.02 0.01 0.00 0.00 0.00 0.00 0.00 0.00
0.00 0.02 0.01 0.01 0.00 0.00 0.00 0.02 0.02 0.02 0.04 0.02 0.00 0.02 0.02 0.01 0.00 0.00 0.00 0.00 0.00 0.00
0.00 0.00 0.00 0.00 0.00 0.01 0.02 0.00 0.00 0.00 0.00 0.00 0.01 0.02 0.00 0.00 0.00 0.00 0.00 0.00 0.00 0.00
0.00 0.00 0.00 0.00 0.00 0.01 0.00 0.00 0.00 0.00 0.00 0.00 0.00 0.00 0.00 0.00 0.00 0.00 0.00 0.00 0.00 0.00
0.00 0.00 0.00 0.00 0.00 0.00 0.00 0.00 0.00 0.00 0.00 0.00 0.00 0.00 0.00 0.00 0.00 0.00 0.00 0.00 0.00 0.00
0.00 0.00 0.00 0.00 0.00 0.00 0.00 0.00 0.00 0.00 0.00 0.00 0.00 0.00 0.00 0.00 0.00 0.00 0.00 0.00 0.00 0.00